星链-31299 (STARLINK-31299 )

导读 | 豆包AI

STARLINK-31299是美国太空探索技术公司SpaceX星链星座的卫星,于2024年2月29日发射升空,是星链低轨互联网星座组网计划的组成部分。它服务全球卫星互联网接入,为用户提供覆盖偏远地区的高速网络服务,推进星链星座全球覆盖布局,也支撑Starlink相关商业与航天应用拓展。

基本信息
目录编号:
59080
目录名称:
STARLINK-31299
国际标识:
2024-041G
轨道中心:
EARTH
卫星名称:
星链-31299
卫星全名:
星链-31299 (STARLINK-31299 )
卫星状态:
已陨落 最后检测时间 2026-03-27
发射日期:
2024-02-29 UTC
国别 :
美国 (US)
星等 :
--
轨道信息
数据来源 国际轨道数据
星历时间: 2026-03-27T17:39:14+0800
轨道信息已过期18天
半长轴: 6562.371km
偏心率: 0.0012583
轨道倾角: 42.970°
近地点辐角 193.549°
升交点赤经 80.050°
平近点角 166.507°
近地点: 175.976km
远地点: 192.492km
周期: 88.176分钟
每日圈数: 16.330959
详细信息
固有亮度:
5
最大亮度:
0.3
卫星平台:
Starlink v2.0 mini
覆盖范围:
全球
运营商:
太空探索技术公司
运营商所在国:
美国
制造商(研发单位):
太空探索技术公司
制造商所在国:
美国
使用方式:
暂无
卫星简介
星链(Starlink)计划是由太空探索技术公司(SpaceX)提出的一个巨型低轨卫星互联网星座项目,计划在2019年至2024年间在太空搭建由约1.2万颗卫星组成的“星链”网络,其中1584颗将部署在地球上空550千米处的近地轨道,并从2020年开始工作。该卫星仍在工作。